Dewpoint
54 44 38 33 21 19 17 12 9 8 14 11 20 37 39 39 51 51 59 66 69 70 71 72 72 73 73 73 73 72 73 73 73 73 73 73 73 73 73 73 73 74 73 72 72 72 71 71 71
50 39 33 26 22 17 14 12 5 5 9 14 16 24 38 43 49 55 60 66 68 70 71 72 72 73 73 72 72 73 73 73 73 73 73 73 73 73 73 73 72 73 73 72 72 71 71 71 71
40 40 28 25 22 18 16 12 8 8 10 15 14 21 36 46 48 58 62 66 68 69 70 71 71 72 73 72 72 72 73 72 72 72 73 73 73 73 73 72 72 73 73 73 72 71 71 71 70
38 31 27 23 22 23 21 21 21 12 20 16 14 24 42 45 49 56 66 68 68 68 70 70 70 71 72 73 73 72 72 72 72 72 73 73 73 73 73 72 72 73 73 73 72 71 71 69 69
38 29 26 26 24 25 24 23 19 23 26 26 22 34 37 42 57 62 68 69 68 69 69 70 70 71 72 73 73 72 72 71 71 72 72 73 73 73 72 71 72 72 73 73 72 70 70 69 68
31 28 24 24 24 23 21 16 23 25 23 28 31 31 33 35 37 61 68 69 69 69 70 70 70 71 71 72 72 71 71 71 71 71 72 72 72 71 71 71 71 72 72 71 70 69 69 68 68
28 27 26 23 21 21 13 15 10 19 10 17 31 27 29 23 35 59 67 70 70 69 69 69 70 71 70 70 70 70 70 70 70 70 70 71 71 70 71 71 71 71 71 70 69 68 68 68 67
20 23 21 17 19 19 8 16 11 5 5 7 15 16 12 17 23 35 64 69 70 69 68 68 68 69 70 71 70 69 69 69 69 70 70 69 69 70 70 70 71 71 70 70 69 68 67 67 66
9 10 10 11 7 4 8 7 9 11 6 7 13 8 13 18 14 14 24 22 61 70 69 68 68 68 68 69 70 70 70 69 69 70 69 68 70 70 70 70 70 70 70 69 68 68 67 66 65
4 7 6 9 7 9 9 6 5 3 3 5 10 15 17 17 13 12 17 24 25 25 52 68 67 67 68 69 69 70 71 71 70 70 70 70 69 69 70 69 69 69 69 68 67 67 66 66 64
5 4 6 6 10 4 5 5 5 4 4 11 8 9 12 33 35 36 37 37 38 39 41 43 52 62 67 67 68 68 69 69 69 70 70 70 69 69 69 69 69 69 68 67 66 66 65 64 63
5 6 7 8 10 6 4 4 5 5 6 10 9 23 34 34 34 34 35 35 35 37 39 42 46 50 51 67 68 68 69 69 68 69 69 69 69 69 69 68 68 68 68 66 66 65 64 64 64
6 9 14 13 14 11 9 7 8 6 11 20 32 32 32 33 32 33 33 33 34 35 36 37 41 46 50 52 61 68 68 69 69 69 70 70 69 68 68 68 68 67 67 65 65 64 64 64 63
18 17 16 16 15 14 12 8 4 5 29 30 31 31 32 32 32 32 32 32 33 33 34 35 38 41 46 48 50 52 68 68 68 69 69 69 69 68 67 67 68 67 67 65 65 64 64 63 63
18 12 12 11 13 11 10 3 3 25 30 30 30 31 31 31 32 32 32 32 32 32 33 34 36 38 42 43 46 50 54 66 68 69 69 69 69 68 67 67 67 68 67 65 64 64 64 63 63
17 14 10 11 11 11 4 4 25 30 30 30 30 30 30 30 31 31 31 31 32 31 31 33 34 36 38 40 43 46 51 55 65 68 69 69 68 68 67 67 67 68 66 65 64 63 63 63 62
19 13 11 9 7 7 5 10 29 30 30 30 30 30 29 30 30 31 31 31 31 31 31 32 33 34 36 39 42 45 48 51 58 67 67 68 68 67 67 66 67 68 66 65 64 63 63 62 62
14 12 7 5 4 9 8 26 28 28 29 29 29 29 29 29 30 30 30 30 30 30 30 32 32 33 35 38 40 43 45 48 51 60 66 65 67 67 67 66 67 67 66 65 64 63 63 62 62
13 11 8 8 10 12 14 27 27 28 28 28 29 29 29 29 30 30 30 30 30 30 30 30 32 33 34 37 38 39 42 44 49 52 61 65 65 67 67 66 66 67 66 65 64 64 63 62 62
14 14 13 13 15 11 16 26 27 27 28 29 29 29 29 29 29 30 30 30 30 30 30 30 30 32 33 35 36 38 41 46 48 51 55 64 64 65 65 66 66 66 66 66 65 64 63 62 62
14 13 14 13 16 16 17 25 26 28 29 29 29 29 29 29 29 29 30 30 30 29 30 30 30 31 32 34 37 38 41 44 48 50 51 59 64 64 64 65 67 66 66 65 65 64 63 61 61
13 15 18 17 16 12 17 15 25 28 28 29 29 29 29 29 30 30 29 29 30 30 30 30 31 31 32 34 36 37 39 40 44 46 50 52 55 63 64 64 65 67 66 65 65 65 64 62 60
18 22 21 21 19 18 17 17 24 27 27 28 29 30 30 30 30 30 30 29 29 30 30 30 31 31 32 33 35 37 39 41 44 46 50 51 53 60 62 62 64 65 66 65 65 65 64 63 62
21 21 22 23 22 20 20 18 22 26 28 29 30 30 30 30 30 30 30 29 29 30 30 30 30 32 33 33 35 36 38 39 42 44 46 51 53 56 60 62 63 63 64 65 65 65 65 63 62
19 21 21 19 21 20 22 22 24 29 30 30 30 29 30 30 30 30 29 29 29 29 29 30 31 32 33 34 35 35 38 38 40 41 43 45 49 53 56 60 61 63 63 62 65 65 64 64 62
21 22 21 16 18 19 23 22 25 30 30 31 29 30 29 29 29 29 28 29 29 30 29 30 30 33 34 35 35 35 37 37 39 41 42 45 48 53 55 54 57 58 60 63 62 64 65 64 63
23 24 25 23 23 20 23 25 28 29 28 28 29 29 29 28 30 29 30 29 29 29 30 31 32 32 34 35 35 33 34 36 37 39 42 45 47 50 51 51 53 58 59 59 61 64 64 64 63
24 25 21 26 20 18 22 23 22 26 27 28 27 27 28 29 29 28 29 30 29 29 30 30 32 32 33 33 34 34 34 36 37 37 38 41 44 47 48 48 51 56 60 59 61 63 64 64 63
17 23 26 26 23 18 15 17 31 27 28 27 28 25 27 30 30 28 27 28 28 28 29 29 31 31 32 33 34 34 34 35 36 37 37 40 43 46 43 41 42 46 59 52 47 57 63 62 62
20 26 26 22 21 24 20 14 31 29 28 29 28 28 24 28 26 30 27 26 26 26 29 29 30 30 32 33 33 33 34 34 34 35 35 38 40 43 41 39 38 38 41 42 38 42 60 61 59
Lifted_Index
10 10 9 7 5 3 2 3 4 4 4 4 4 3 1 -1 -2 -3 -4 -5 -5 -5 -6 -6 -6 -6 -6 -5 -5 -5 -6 -5 -5 -4 -4 -4 -4 -4 -4 -4 -4 -4 -4 -4 -4 -4 -3 -3 -2
9 9 8 6 4 2 2 3 4 4 4 5 4 3 2 0 -1 -3 -4 -5 -5 -5 -5 -6 -6 -7 -6 -6 -6 -6 -6 -6 -5 -5 -4 -4 -4 -4 -4 -4 -4 -4 -4 -4 -4 -3 -3 -2 -2
8 8 7 5 3 2 3 4 4 5 5 5 5 4 3 1 -0 -3 -4 -5 -5 -6 -5 -6 -6 -7 -6 -6 -6 -6 -6 -6 -5 -5 -5 -5 -5 -4 -4 -4 -4 -4 -4 -4 -4 -3 -2 -2 -2
7 7 6 4 3 3 3 4 5 5 5 5 5 4 3 2 -0 -3 -5 -6 -6 -6 -6 -6 -6 -6 -6 -6 -6 -6 -6 -6 -5 -5 -5 -5 -5 -4 -4 -4 -4 -4 -4 -4 -3 -3 -2 -1 -1
7 6 5 4 3 3 4 4 5 5 5 5 5 5 4 3 0 -3 -5 -6 -7 -7 -6 -6 -6 -6 -6 -6 -6 -6 -6 -6 -5 -6 -6 -5 -5 -5 -4 -4 -4 -4 -4 -4 -3 -2 -1 -1 -1
7 6 4 3 3 4 5 5 4 5 5 5 5 5 5 5 2 -2 -5 -7 -7 -7 -6 -6 -6 -6 -6 -6 -6 -6 -6 -5 -5 -6 -6 -6 -5 -5 -4 -4 -4 -4 -4 -3 -2 -1 -1 -0 -0
6 6 4 3 3 4 5 5 5 5 5 5 5 5 6 7 5 0 -4 -6 -7 -7 -6 -6 -6 -6 -5 -6 -6 -6 -5 -5 -5 -5 -6 -5 -5 -5 -4 -4 -4 -4 -4 -3 -2 -1 -0 0 0
7 5 4 3 3 4 5 6 6 6 6 6 6 5 6 8 7 4 -1 -3 -5 -6 -7 -6 -6 -6 -5 -5 -5 -6 -6 -5 -5 -5 -5 -5 -5 -5 -4 -4 -4 -4 -3 -2 -1 -1 -0 0 1
6 5 4 4 4 5 6 6 6 6 6 6 6 6 7 9 9 7 5 4 1 -2 -4 -5 -6 -6 -5 -5 -5 -5 -6 -6 -6 -5 -5 -5 -5 -5 -5 -5 -4 -4 -3 -2 -1 -1 -0 0 1
6 4 4 5 6 6 6 6 6 6 6 6 6 7 8 9 9 9 9 9 8 6 3 -0 -3 -4 -5 -5 -5 -5 -5 -6 -6 -6 -5 -5 -5 -5 -5 -5 -5 -4 -3 -2 -1 -1 -0 1 1
5 5 5 6 7 7 6 6 5 5 5 6 7 8 8 9 9 9 10 10 10 10 9 6 3 1 -2 -4 -4 -5 -5 -5 -6 -6 -6 -6 -5 -5 -5 -5 -5 -4 -4 -2 -1 -1 -0 0 1
6 6 6 7 7 7 6 5 5 5 6 7 8 9 10 9 9 10 10 10 10 10 10 9 8 7 4 0 -3 -4 -4 -5 -5 -6 -6 -6 -6 -5 -5 -5 -5 -4 -4 -3 -2 -1 -0 0 1
6 6 7 7 7 7 6 6 6 7 8 9 9 10 10 10 10 10 10 10 10 9 9 9 9 9 8 5 1 -1 -3 -4 -5 -5 -6 -6 -6 -5 -5 -5 -4 -4 -4 -3 -2 -1 -0 0 0
7 7 7 7 7 7 7 7 7 8 9 9 9 10 9 9 9 9 9 9 9 9 9 9 9 9 9 9 7 3 -2 -4 -5 -5 -6 -6 -6 -6 -5 -5 -4 -4 -4 -3 -2 -1 -1 -0 -0
7 7 6 6 7 7 7 7 8 9 9 9 9 9 9 9 9 9 9 9 10 10 9 9 9 9 9 9 9 7 2 -2 -4 -5 -6 -6 -6 -6 -6 -5 -5 -4 -4 -3 -2 -1 -1 -1 -0
7 6 5 6 7 7 7 7 8 9 9 9 9 9 9 8 8 9 9 9 10 10 10 9 9 9 9 9 9 9 6 3 -1 -4 -5 -6 -6 -6 -6 -6 -5 -5 -4 -4 -3 -2 -1 -1 -1
5 5 5 6 7 8 8 8 8 9 9 9 9 8 8 8 8 8 9 10 10 10 10 10 10 10 10 10 9 9 9 7 3 -1 -4 -5 -5 -5 -6 -6 -6 -5 -5 -4 -3 -2 -2 -2 -2
5 4 5 6 7 8 8 8 8 9 9 9 9 8 7 7 7 8 9 10 10 10 11 11 11 11 11 10 10 9 9 8 7 2 -2 -4 -5 -5 -5 -6 -6 -6 -5 -5 -4 -3 -2 -2 -2
5 5 5 6 7 7 7 8 9 9 9 9 8 8 7 7 8 9 10 10 10 10 11 11 11 12 12 11 11 10 9 9 8 5 1 -3 -5 -5 -5 -5 -6 -6 -5 -5 -5 -4 -3 -3 -3
5 5 5 6 6 7 7 8 9 9 9 8 8 8 7 7 8 9 9 10 10 10 11 11 12 13 13 13 12 11 10 9 8 7 4 -1 -3 -4 -4 -4 -5 -5 -5 -5 -5 -4 -4 -3 -3
5 5 6 6 6 6 6 7 8 8 8 8 8 8 8 8 8 9 9 10 10 10 10 11 12 13 14 14 13 12 10 9 8 8 6 2 -1 -3 -4 -4 -4 -4 -4 -5 -5 -5 -4 -4 -3
5 6 7 7 6 6 6 6 6 8 7 7 7 7 8 8 9 9 9 9 9 9 10 11 12 13 13 14 13 11 10 9 8 7 7 5 2 -1 -3 -3 -3 -3 -3 -4 -5 -5 -5 -4 -4
6 7 7 7 6 6 5 5 6 6 6 6 6 7 8 9 9 9 9 9 9 9 10 11 12 12 13 14 13 11 9 8 8 7 6 6 5 2 -1 -2 -3 -2 -3 -4 -5 -5 -5 -5 -4
7 7 6 6 5 4 4 4 5 5 5 5 6 7 8 8 8 8 8 8 8 9 10 11 11 12 13 14 14 13 11 9 8 7 6 6 6 4 1 -1 -2 -2 -2 -3 -4 -5 -5 -5 -5
7 6 4 3 2 2 3 4 4 4 5 5 6 7 7 7 7 7 7 7 8 8 9 10 11 11 13 14 15 14 13 11 9 8 7 6 6 5 3 1 -0 -1 -2 -2 -3 -5 -5 -5 -5
6 5 3 2 2 2 2 3 4 4 5 6 6 6 7 6 6 6 7 8 8 9 10 10 11 11 13 15 16 15 14 12 11 9 8 7 6 5 4 3 2 1 -0 -1 -1 -4 -5 -6 -5
5 4 4 3 2 2 2 3 4 4 5 5 6 6 6 6 6 7 8 9 9 10 10 11 11 12 14 16 16 15 14 13 12 10 8 7 6 5 4 4 4 3 1 1 -0 -3 -5 -6 -6
4 4 4 4 2 2 2 3 3 4 4 5 5 5 6 6 7 8 9 10 10 11 12 12 12 13 14 16 16 16 15 13 12 10 8 7 5 5 4 4 4 3 2 1 0 -1 -4 -5 -6
4 4 4 3 2 2 2 3 3 4 4 5 5 5 6 6 7 8 9 10 11 12 12 12 12 13 14 15 16 16 15 14 12 10 8 7 6 5 4 4 4 3 2 1 1 0 -2 -4 -5
5 5 4 3 3 2 2 3 4 4 4 5 5 5 6 7 7 8 9 10 11 12 12 12 12 12 14 15 16 16 15 14 12 10 9 8 7 5 4 3 4 4 2 2 2 1 -1 -4 -4